Weather WX

World > North America > United States > Minnesota

Watson, Minnesota Regional Weather

Lat: 45.01N, Lon: 95.8W
Wx Zone: MNZ056
Feedback

Watson, MN Regional Weather

Expires:201906200000;;754021
ASUS43 KMPX 192310
RWRMN 
WEATHER ROUNDUP FOR MINNESOTA
NATIONAL WEATHER SERVICE TWIN CITIES/CHANHASSEN MN
600 PM CDT WED JUN 19 2019


NOTE: "FAIR" INDICATES FEW OR NO CLOUDS BELOW 12,000 FEET WITH NO
SIGNIFICANT WEATHER AND/OR OBSTRUCTIONS TO VISIBILITY. N/A MEANS
CURRENT SKY AND/OR WEATHER CONDITIONS ARE NOT AVAILABLE.


MNZ029>031-032-039>041-046>048-054>057-064-200000-
   West Central Minnesota   
  
CITY           SKY/WX    TMP DP  RH WIND       PRES   REMARKS
FERGUS FALLS   FAIR      72  52  49 E6        29.76S                  
WHEATON        MOSUNNY   73  46  38 E9        29.74F                  
MORRIS         MOSUNNY   75  48  38 SE8       29.69F                  
ALEXANDRIA     FAIR      77  50  38 SE10      29.77F                  
WADENA         PTSUNNY   70  52  52 SE5       29.78S                  
GLENWOOD       FAIR      75  52  43 E12       29.77S                  
APPLETON       MOSUNNY   75  48  38 E7        29.72F                  
BENSON         MOSUNNY   73  54  49 E8        29.74F                  
ORTONVILLE     CLOUDY    73  50  43 E6        29.73S                  
MADISON        MOSUNNY   79  48  34 CALM      29.72F                  
WILLMAR        FAIR      73  54  49 E7        29.77S                  
$$

SKY/WX - Weather  TMP - Temperature  DP - Dew Point  RH - Relative Humidity
WIND - Wind Direction/Speed PRES - Barometric Pressure VSB - Visibility
WCI - Wind Chill Index E13G22 Wind - East Wind 13 mph/Gusts of 22 mph